Index of /~lester/dtm662/mt2/Releases/oxbridgekinetics

[ICO]NameLast modifiedSizeDescription

[DIR]Parent Directory  -  
[DIR]examples/11-Apr-2019 12:19 -  
[DIR]src/11-Apr-2019 12:19 -  
[DIR]Mt2/11-Apr-2019 12:19 -  
[TXT]INSTALL11-Apr-2019 12:19 17K 
[TXT]missing11-Apr-2019 12:17 11K 
[TXT]install-sh11-Apr-2019 12:17 13K 
[TXT]depcomp11-Apr-2019 12:17 18K 
[TXT]config.sub11-Apr-2019 12:17 34K 
[TXT]config.h.in11-Apr-2019 12:17 1.5K 
[TXT]config.guess11-Apr-2019 12:17 44K 
[TXT]Makefile.in11-Apr-2019 12:17 86K 
[TXT]configure11-Apr-2019 12:17 537K 
[TXT]aclocal.m411-Apr-2019 12:17 309K 
[   ]ltmain.sh11-Apr-2019 12:17 238K 
[   ]configure.ac11-Apr-2019 12:16 4.1K 
[TXT]README11-Apr-2019 12:15 4.4K 
[TXT]Makefile.am16-May-2018 20:34 12K 
[   ]ChangeLog30-Apr-2018 14:02 18  
[   ]autogen.sh30-Apr-2018 11:25 218  
[TXT]COPYING02-Mar-2015 23:41 34K 
[TXT]oxbridgekineticsconfig.h.in02-Mar-2015 23:41 0  
[   ]oxbridgekinetics.pc.in02-Mar-2015 23:41 365  
[TXT]acinclude.m402-Mar-2015 23:41 3.7K 
[TXT]NEWS02-Mar-2015 23:41 0  
[TXT]AUTHORS02-Mar-2015 23:41 0  

Apache/2.2.15 (Red Hat) Server at www.hep.phy.cam.ac.uk Port 443